When you browse on this site, cookies collect data to enhance your experience and personalize the content and advertising you see.
Visit our Privacy Policy to learn more. By continuing to use the site, you agree to this use of cookies and data.
  • In Hungary
  • List of Countries
  • For 7 days
  • Water Temperature
  • Weather Map
  • News
  • Weather Widgets
  • user-avatar
    Login

    Hourly Weather Stavyshche

    Today, 22 August, Thursday

    Time Temperature Precipitation Wind Pressure Humidity
    00:00 +15°C° 0 mm 5 mps 749 mmHg 85%
    01:00 +14°C° 0 mm 4 mps 749 mmHg 86%
    02:00 +14°C° 0 mm 4 mps 750 mmHg 88%
    03:00 +13°C° 0.2 mm 4 mps 750 mmHg 89%
    04:00 +13°C° 0.2 mm 4 mps 750 mmHg 91%
    05:00 +12°C° 0.2 mm 3 mps 750 mmHg 92%
    06:00 +13°C° 0.1 mm 4 mps 750 mmHg 88%
    07:00 +14°C° 0.1 mm 4 mps 750 mmHg 84%
    08:00 +15°C° 0.1 mm 4 mps 751 mmHg 81%
    09:00 +17°C° 0 mm 4 mps 751 mmHg 76%
    10:00 +19°C° 0 mm 4 mps 751 mmHg 71%
    11:00 +20°C° 0 mm 4 mps 751 mmHg 66%
    12:00 +21°C° 0 mm 4 mps 751 mmHg 63%
    13:00 +22°C° 0 mm 4 mps 751 mmHg 61%
    14:00 +23°C° 0 mm 4 mps 751 mmHg 58%
    15:00 +23°C° 0 mm 4 mps 751 mmHg 59%
    16:00 +23°C° 0 mm 4 mps 750 mmHg 60%
    17:00 +22°C° 0 mm 4 mps 750 mmHg 61%
    18:00 +21°C° 0 mm 4 mps 750 mmHg 66%
    19:00 +20°C° 0 mm 3 mps 750 mmHg 70%
    20:00 +18°C° 0 mm 3 mps 750 mmHg 75%
    21:00 +18°C° 0.1 mm 3 mps 750 mmHg 77%
    22:00 +17°C° 0.1 mm 3 mps 750 mmHg 80%
    23:00 +17°C° 0.1 mm 3 mps 750 mmHg 82%

    Tomorrow, 23 August, Friday

    Time Temperature Precipitation Wind Pressure Humidity
    00:00 +17°C° 0.2 mm 3 mps 751 mmHg 84%
    01:00 +17°C° 0.2 mm 3 mps 751 mmHg 87%
    02:00 +16°C° 0.2 mm 3 mps 751 mmHg 89%
    03:00 +16°C° 0.2 mm 2 mps 751 mmHg 90%
    04:00 +16°C° 0.2 mm 2 mps 750 mmHg 92%
    05:00 +16°C° 0.2 mm 2 mps 750 mmHg 93%
    06:00 +16°C° 0 mm 2 mps 751 mmHg 90%
    07:00 +17°C° 0 mm 3 mps 751 mmHg 88%
    08:00 +18°C° 0 mm 3 mps 751 mmHg 85%
    09:00 +19°C° 0 mm 3 mps 751 mmHg 77%
    10:00 +21°C° 0 mm 3 mps 751 mmHg 70%
    11:00 +22°C° 0 mm 3 mps 751 mmHg 62%
    12:00 +24°C° 0 mm 3 mps 751 mmHg 59%
    13:00 +25°C° 0 mm 4 mps 751 mmHg 56%
    14:00 +25°C° 0 mm 4 mps 751 mmHg 53%
    15:00 +25°C° 0 mm 3 mps 751 mmHg 54%
    16:00 +25°C° 0 mm 3 mps 750 mmHg 56%
    17:00 +25°C° 0 mm 3 mps 750 mmHg 57%
    18:00 +22°C° 0 mm 3 mps 750 mmHg 61%
    19:00 +20°C° 0 mm 3 mps 750 mmHg 66%
    20:00 +18°C° 0 mm 2 mps 750 mmHg 70%
    21:00 +18°C° 0 mm 2 mps 750 mmHg 71%
    22:00 +17°C° 0 mm 2 mps 750 mmHg 72%
    23:00 +16°C° 0 mm 2 mps 750 mmHg 73%

    Day after tomorrow, 24 August, Saturday

    Time Temperature Precipitation Wind Pressure Humidity
    00:00 +16°C° 0 mm 2 mps 750 mmHg 74%
    01:00 +15°C° 0 mm 2 mps 750 mmHg 74%
    02:00 +15°C° 0 mm 2 mps 750 mmHg 75%
    03:00 +14°C° 0 mm 2 mps 750 mmHg 75%
    04:00 +14°C° 0 mm 2 mps 750 mmHg 76%
    05:00 +14°C° 0 mm 2 mps 750 mmHg 76%
    06:00 +14°C° 0 mm 3 mps 750 mmHg 74%
    07:00 +16°C° 0 mm 3 mps 750 mmHg 72%
    08:00 +17°C° 0 mm 3 mps 750 mmHg 70%
    09:00 +19°C° 0 mm 3 mps 750 mmHg 66%
    10:00 +21°C° 0 mm 3 mps 750 mmHg 61%
    11:00 +22°C° 0 mm 4 mps 750 mmHg 57%
    12:00 +24°C° 0 mm 3 mps 750 mmHg 54%
    13:00 +25°C° 0 mm 3 mps 750 mmHg 51%
    14:00 +26°C° 0 mm 3 mps 749 mmHg 49%
    15:00 +25°C° 0 mm 3 mps 749 mmHg 51%
    16:00 +25°C° 0 mm 3 mps 749 mmHg 54%
    17:00 +25°C° 0 mm 3 mps 748 mmHg 57%
    18:00 +22°C° 0 mm 3 mps 748 mmHg 60%
    19:00 +21°C° 0 mm 3 mps 748 mmHg 63%
    20:00 +19°C° 0 mm 2 mps 748 mmHg 67%
    21:00 +18°C° 0 mm 3 mps 748 mmHg 67%
    22:00 +18°C° 0 mm 3 mps 748 mmHg 68%
    23:00 +17°C° 0 mm 3 mps 748 mmHg 69%

    25 August, Sunday

    Time Temperature Precipitation Wind Pressure Humidity
    00:00 +17°C° 0 mm 3 mps 748 mmHg 69%
    01:00 +16°C° 0 mm 3 mps 748 mmHg 69%
    02:00 +16°C° 0 mm 3 mps 748 mmHg 69%
    03:00 +16°C° 0 mm 3 mps 748 mmHg 69%
    04:00 +15°C° 0 mm 2 mps 748 mmHg 69%
    05:00 +15°C° 0 mm 2 mps 748 mmHg 69%
    06:00 +16°C° 0 mm 2 mps 748 mmHg 67%
    07:00 +17°C° 0 mm 3 mps 748 mmHg 66%
    08:00 +18°C° 0 mm 3 mps 748 mmHg 65%
    09:00 +20°C° 0 mm 3 mps 748 mmHg 62%
    10:00 +22°C° 0 mm 3 mps 748 mmHg 58%
    11:00 +25°C° 0 mm 3 mps 748 mmHg 55%
    12:00 +26°C° 0 mm 3 mps 748 mmHg 55%
    13:00 +26°C° 0 mm 4 mps 748 mmHg 55%
    14:00 +27°C° 0 mm 4 mps 748 mmHg 54%
    15:00 +27°C° 0 mm 4 mps 747 mmHg 56%
    16:00 +27°C° 0 mm 4 mps 747 mmHg 59%
    17:00 +26°C° 0 mm 4 mps 747 mmHg 61%
    18:00 +25°C° 0 mm 4 mps 747 mmHg 64%
    19:00 +22°C° 0 mm 4 mps 747 mmHg 68%
    20:00 +20°C° 0 mm 4 mps 747 mmHg 72%
    21:00 +19°C° 0 mm 3 mps 747 mmHg 71%
    22:00 +19°C° 0 mm 3 mps 747 mmHg 70%
    23:00 +18°C° 0 mm 3 mps 748 mmHg 69%

    26 August, Monday

    Time Temperature Precipitation Wind Pressure Humidity
    00:00 +17°C° 0 mm 3 mps 748 mmHg 70%
    01:00 +17°C° 0 mm 3 mps 748 mmHg 71%
    02:00 +16°C° 0 mm 3 mps 748 mmHg 72%
    03:00 +16°C° 0 mm 3 mps 748 mmHg 72%
    04:00 +16°C° 0 mm 3 mps 747 mmHg 72%
    05:00 +14°C° 0 mm 3 mps 747 mmHg 72%
    06:00 +17°C° 0 mm 3 mps 748 mmHg 69%
    07:00 +18°C° 0 mm 3 mps 748 mmHg 67%
    08:00 +19°C° 0 mm 3 mps 748 mmHg 65%
    09:00 +21°C° 0 mm 3 mps 748 mmHg 62%
    10:00 +22°C° 0 mm 3 mps 748 mmHg 59%
    11:00 +25°C° 0 mm 3 mps 748 mmHg 56%
    12:00 +26°C° 0 mm 4 mps 748 mmHg 54%
    13:00 +26°C° 0 mm 4 mps 748 mmHg 51%
    14:00 +27°C° 0 mm 4 mps 748 mmHg 49%
    15:00 +27°C° 0 mm 3 mps 748 mmHg 52%
    16:00 +27°C° 0 mm 3 mps 747 mmHg 54%
    17:00 +27°C° 0 mm 3 mps 747 mmHg 57%
    18:00 +25°C° 0 mm 3 mps 747 mmHg 61%
    19:00 +22°C° 0 mm 3 mps 747 mmHg 66%
    20:00 +20°C° 0 mm 3 mps 747 mmHg 70%
    21:00 +20°C° 0 mm 3 mps 747 mmHg 71%
    22:00 +19°C° 0 mm 3 mps 747 mmHg 72%
    23:00 +18°C° 0 mm 3 mps 747 mmHg 73%

    27 August, Tuesday

    Time Temperature Precipitation Wind Pressure Humidity
    00:00 +18°C° 0 mm 3 mps 747 mmHg 73%
    01:00 +18°C° 0 mm 3 mps 747 mmHg 73%
    02:00 +17°C° 0 mm 3 mps 747 mmHg 73%
    03:00 +17°C° 0 mm 3 mps 747 mmHg 72%
    04:00 +17°C° 0 mm 3 mps 747 mmHg 71%
    05:00 +16°C° 0 mm 3 mps 747 mmHg 70%
    06:00 +17°C° 0 mm 3 mps 747 mmHg 67%
    07:00 +19°C° 0 mm 3 mps 747 mmHg 64%
    08:00 +20°C° 0 mm 3 mps 747 mmHg 61%
    09:00 +22°C° 0 mm 3 mps 747 mmHg 58%
    10:00 +25°C° 0 mm 3 mps 747 mmHg 55%
    11:00 +27°C° 0 mm 3 mps 747 mmHg 53%
    12:00 +28°C° 0 mm 3 mps 747 mmHg 52%
    13:00 +29°C° 0 mm 3 mps 747 mmHg 50%
    14:00 +30°C° 0 mm 3 mps 747 mmHg 49%
    15:00 +30°C° 0 mm 3 mps 747 mmHg 51%
    16:00 +30°C° 0 mm 3 mps 746 mmHg 53%
    17:00 +29°C° 0 mm 3 mps 746 mmHg 55%
    18:00 +27°C° 0 mm 3 mps 746 mmHg 59%
    19:00 +25°C° 0 mm 3 mps 746 mmHg 63%
    20:00 +22°C° 0 mm 3 mps 746 mmHg 66%
    21:00 +22°C° 0 mm 3 mps 746 mmHg 66%
    22:00 +21°C° 0 mm 3 mps 746 mmHg 65%
    23:00 +20°C° 0 mm 3 mps 746 mmHg 64%
    Show more